Waarnemingen

Advertentie
Mijn weer
D15-FA-1, Nederland (6201): temperatuur & dauwpunt: 20.05.2017 16:00:00 - 26.05.2017 16:00:00 (CEST)D15-FA-1, Nederland (6201): windsnelheid & windstoten: 20.05.2017 16:00:00 - 26.05.2017 16:00:00 (CEST)D15-FA-1, Nederland (6201): windrichting: 20.05.2017 16:00:00 - 26.05.2017 16:00:00 (CEST)D15-FA-1, Nederland (6201): luchtdruk: 20.05.2017 16:00:00 - 26.05.2017 16:00:00 (CEST)D15-FA-1, Nederland (6201): zicht: 20.05.2017 16:00:00 - 26.05.2017 16:00:00 (CEST)
Datum & Tijd tt [°C] td [°C] ff [km/u] ff [kn] fx [km/u] fx [kn] dd ppp [hPa] vv [km]
26.05.2017 16:00:00 13,7 13,1 22 12 22 12 OZO 1022,5 10
26.05.2017 15:00:00 13,6 12,9 21 11 22 12 ZO 1022,9 10
26.05.2017 14:00:00 13,5 12,8 24 13 22 12 ZZO 1023,1 10
26.05.2017 13:00:00 13,5 12,7 16 9 18 10 ZO 1023,7 10
26.05.2017 12:00:00 13,3 12,6 16 9 18 10 OZO 1023,9 10
26.05.2017 11:00:00 13,5 12,4 16 9 18 10 ZZO 1024,1 10
26.05.2017 10:00:00 13,3 12,4 21 11 22 12 ZZO 1024,1 10
26.05.2017 09:00:00 13,3 12,4 24 13 22 12 ZO 1024,1 10
26.05.2017 08:00:00 13,3 12,5 24 13 22 12 OZO 1023,9 10
26.05.2017 07:00:00 13,2 12,5 22 12 22 12 OZO 1023,6 10
26.05.2017 06:00:00 13,3 12,4 22 12 22 12 OZO 1023,9 10
26.05.2017 05:00:00 13,2 12,6 24 13 22 12 OZO 1023,8 10
26.05.2017 04:00:00 13,4 12,8 16 9 18 10 OZO 1023,9 10
26.05.2017 03:00:00 13,6 12,8 9 5 11 6 OZO 1024,0 10
26.05.2017 02:00:00 13,5 12,8 8 4 7 4 OZO 1024,2 10
26.05.2017 01:00:00 13,4 12,8 4 2 4 2 ZZO 1024,5 10
26.05.2017 00:00:00 13,7 12,3 5 3 7 4 Z 1024,4 10
25.05.2017 23:00:00 13,7 12,4 8 4 11 6 Z 1024,4 10
25.05.2017 22:00:00 13,5 12,7 13 7 14 8 Z 1024,3 10
25.05.2017 21:00:00 13,6 12,6 11 6 14 8 Z 1024,3 10
25.05.2017 20:00:00 13,8 12,7 15 8 14 8 ZZW 1024,5 10
25.05.2017 19:00:00 13,8 12,8 15 8 14 8 Z 1024,7 10
25.05.2017 18:00:00 13,8 12,6 11 6 14 8 Z 1025,0 10
25.05.2017 17:00:00 13,6 12,5 13 7 14 8 Z 1025,4 10
25.05.2017 16:00:00 13,7 12,5 9 5 11 6 Z 1025,7 10
25.05.2017 15:00:00 13,5 12,3 13 7 14 8 Z 1025,8 10
25.05.2017 14:00:00 13,7 12,4 9 5 7 4 Z 1026,0 10
25.05.2017 13:00:00 13,5 12,1 8 4 14 8 ZW 1026,1 10
25.05.2017 12:00:00 12,9 12,0 5 3 14 8 - 1026,0 10
25.05.2017 11:00:00 12,9 11,6 13 7 14 8 WNW 1025,7 10
25.05.2017 10:00:00 12,8 11,6 13 7 14 8 W 1025,6 10
25.05.2017 09:00:00 12,4 11,5 11 6 14 8 WNW 1025,3 10
25.05.2017 08:00:00 12,3 11,4 9 5 14 8 W 1025,4 10
25.05.2017 07:00:00 12,3 11,2 9 5 14 8 NW 1025,4 8
25.05.2017 06:00:00 12,3 11,4 16 9 18 10 WNW 1025,1 10
25.05.2017 05:00:00 12,0 10,9 18 10 18 10 W 1024,9 10
25.05.2017 04:00:00 12,3 11,0 16 9 18 10 W 1025,0 10
25.05.2017 03:00:00 12,5 10,4 9 5 11 6 WNW 1025,4 10
25.05.2017 02:00:00 12,4 11,0 9 5 11 6 W 1025,6 10
25.05.2017 01:00:00 12,2 11,3 5 3 14 8 W 1025,5 10
25.05.2017 00:00:00 12,0 11,7 11 6 14 8 W 1025,6 10
24.05.2017 23:00:00 12,0 11,5 11 6 11 6 NW 1025,5 10
24.05.2017 22:00:00 12,3 11,5 8 4 11 6 NNW 1025,2 10
24.05.2017 21:00:00 12,7 11,3 11 6 11 6 N 1025,0 10
24.05.2017 20:00:00 12,7 11,4 13 7 22 12 NNW 1025,0 10
24.05.2017 19:00:00 12,5 11,1 22 12 22 12 NNW 1024,7 10
24.05.2017 18:00:00 12,6 11,5 24 13 25 14 NW 1024,9 10
24.05.2017 17:00:00 12,6 11,4 31 17 32 18 NW 1024,8 22
24.05.2017 16:00:00 13,2 11,5 34 18 32 18 NW 1024,7 10
24.05.2017 15:00:00 13,4 11,6 31 17 36 19 WNW 1024,4 10
24.05.2017 14:00:00 13,6 11,4 37 20 36 19 NW 1024,1 10
24.05.2017 13:00:00 13,6 11,6 31 17 32 18 NW 1023,9 10
24.05.2017 12:00:00 13,8 11,7 37 20 36 19 NNW 1023,7 10
24.05.2017 11:00:00 12,6 11,1 28 15 29 16 W 1023,3 10
24.05.2017 10:00:00 12,8 10,4 28 15 29 16 W 1023,0 10
24.05.2017 09:00:00 12,2 10,6 29 16 29 16 W 1022,8 10
24.05.2017 08:00:00 12,0 10,6 24 13 29 16 W 1022,3 10
24.05.2017 07:00:00 11,9 10,5 18 10 25 14 - 1022,1 10
24.05.2017 06:00:00 12,1 10,0 18 10 22 12 - 1021,9 10
24.05.2017 05:00:00 12,3 8,7 16 9 22 12 - 1021,9 10
24.05.2017 04:00:00 11,7 9,4 15 8 22 12 - 1021,9 10
24.05.2017 03:00:00 12,0 9,0 18 10 25 14 - 1022,0 10
24.05.2017 02:00:00 11,7 8,4 24 13 29 16 ZW 1022,1 10
24.05.2017 01:00:00 11,6 9,2 22 12 25 14 ZW 1022,2 10
24.05.2017 00:00:00 11,8 8,2 18 10 25 14 ZW 1022,3 10
23.05.2017 23:00:00 11,7 9,0 9 5 22 12 ZZW 1022,1 10
23.05.2017 22:00:00 11,8 9,0 15 8 - - W 1022,0 10
23.05.2017 21:00:00 11,5 9,5 18 10 18 10 W 1021,5 10
23.05.2017 20:00:00 11,7 8,9 21 11 22 12 W 1021,3 10
23.05.2017 19:00:00 11,7 9,1 21 11 22 12 W 1021,1 10
23.05.2017 18:00:00 11,6 9,2 18 10 18 10 W 1020,7 10
23.05.2017 17:00:00 11,8 8,9 18 10 22 12 W 1020,7 10
23.05.2017 16:00:00 12,0 9,0 22 12 25 14 W 1020,2 10
23.05.2017 15:00:00 11,9 9,1 24 13 29 16 W 1020,0 10
23.05.2017 14:00:00 12,0 8,8 26 14 32 18 WNW 1019,4 10
23.05.2017 13:00:00 12,4 8,5 35 19 36 19 NW 1018,8 10
23.05.2017 12:00:00 12,3 8,2 34 18 36 19 NW 1017,9 9
23.05.2017 11:00:00 12,3 8,2 39 21 40 21 NW 1017,2 10
23.05.2017 10:00:00 12,9 9,1 42 23 40 21 WNW 1016,5 10
23.05.2017 09:00:00 12,8 9,9 39 21 40 21 WNW 1015,6 10
23.05.2017 08:00:00 12,8 10,6 34 18 32 18 NW 1014,7 10
23.05.2017 07:00:00 12,7 10,5 37 20 40 21 WNW 1014,0 10
23.05.2017 06:00:00 12,8 10,5 29 16 36 19 WNW 1013,3 10
23.05.2017 05:00:00 12,5 10,0 31 17 36 19 WZW 1013,1 10
23.05.2017 04:00:00 13,2 9,4 41 22 40 21 ZZW 1012,6 10
23.05.2017 03:00:00 13,1 10,0 35 19 32 18 Z 1012,6 10
23.05.2017 02:00:00 12,8 10,6 37 20 32 18 Z 1013,3 10
23.05.2017 01:00:00 12,6 10,7 34 18 40 21 ZZO 1014,0 10
23.05.2017 00:00:00 12,8 10,8 39 21 36 19 ZZO 1014,4 10
22.05.2017 23:00:00 12,8 10,8 39 21 36 19 ZZO 1014,7 10
22.05.2017 22:00:00 12,9 10,5 42 23 40 21 ZZO 1015,3 10
22.05.2017 21:00:00 12,9 10,5 39 21 36 19 ZO 1015,2 10
22.05.2017 20:00:00 12,9 10,1 39 21 36 19 ZZO 1015,5 10
22.05.2017 19:00:00 12,7 10,5 31 17 32 18 ZO 1016,0 8
22.05.2017 18:00:00 12,5 10,7 28 15 29 16 ZZO 1016,6 8
22.05.2017 17:00:00 12,3 10,7 31 17 29 16 ZZO 1017,5 10
22.05.2017 16:00:00 12,4 10,5 31 17 29 16 ZZO 1018,0 10
22.05.2017 15:00:00 12,3 10,4 29 16 29 16 ZZO 1018,4 8
22.05.2017 14:00:00 12,0 10,4 29 16 40 21 ZZO 1019,0 4,5
22.05.2017 13:00:00 12,0 10,3 34 18 32 18 ZZO 1019,4 6
22.05.2017 12:00:00 11,9 10,1 34 18 32 18 ZZO 1019,8 6
22.05.2017 11:00:00 11,7 9,9 34 18 32 18 ZZO 1019,9 9
22.05.2017 10:00:00 11,6 9,6 34 18 32 18 ZO 1020,2 10
22.05.2017 09:00:00 11,6 9,4 35 19 32 18 ZO 1020,4 10
22.05.2017 08:00:00 11,5 9,6 28 15 29 16 ZZO 1020,6 10
22.05.2017 07:00:00 11,5 9,9 29 16 29 16 ZO 1020,9 10
22.05.2017 06:00:00 11,3 9,3 28 15 29 16 ZZO 1021,2 10
22.05.2017 05:00:00 10,8 9,7 28 15 29 16 ZZO 1021,8 10
22.05.2017 04:00:00 10,8 9,8 26 14 29 16 ZZO 1022,2 8
22.05.2017 03:00:00 10,7 10,2 28 15 25 14 ZZO 1022,8 3,6
22.05.2017 02:00:00 10,6 10,2 24 13 25 14 ZZO 1023,3 3,5
22.05.2017 01:00:00 10,8 10,0 24 13 25 14 Z 1023,4 5
22.05.2017 00:00:00 10,8 10,2 22 12 25 14 ZZO 1023,6 10
21.05.2017 23:00:00 10,8 10,2 26 14 29 16 Z 1023,9 9
21.05.2017 22:00:00 10,8 10,3 29 16 29 16 Z 1023,9 10
21.05.2017 21:00:00 10,8 10,3 28 15 29 16 Z 1024,1 10
21.05.2017 20:00:00 10,9 10,2 22 12 25 14 ZZO 1024,4 10
21.05.2017 19:00:00 10,9 10,0 22 12 22 12 ZZO 1024,6 10
21.05.2017 18:00:00 10,8 9,9 16 9 18 10 ZZO 1024,9 10
21.05.2017 17:00:00 11,0 9,4 24 13 25 14 ZW 1025,2 21
21.05.2017 16:00:00 10,7 9,6 26 14 29 16 ZW 1025,4 10
21.05.2017 15:00:00 10,7 9,6 24 13 25 14 ZZW 1025,5 10
21.05.2017 14:00:00 10,6 9,5 28 15 32 18 ZW 1025,5 10
21.05.2017 13:00:00 10,5 9,4 28 15 29 16 ZW 1025,5 10
21.05.2017 12:00:00 10,6 9,5 28 15 29 16 ZW 1025,4 10
21.05.2017 11:00:00 10,5 9,5 28 15 32 18 ZW 1024,9 10
21.05.2017 10:00:00 10,4 9,5 28 15 29 16 ZW 1024,5 10
21.05.2017 09:00:00 10,4 9,4 28 15 32 18 ZW 1023,8 10
21.05.2017 08:00:00 10,4 9,4 28 15 29 16 ZW 1023,1 10
21.05.2017 07:00:00 10,5 9,4 28 15 36 19 ZW 1022,5 10
21.05.2017 06:00:00 10,7 9,2 39 21 40 21 ZW 1022,0 10
21.05.2017 05:00:00 10,9 9,1 31 17 43 23 ZW 1021,7 10
21.05.2017 04:00:00 10,6 9,1 31 17 40 21 ZZW 1021,6 10
21.05.2017 03:00:00 10,5 8,9 35 19 40 21 ZZW 1021,6 10
21.05.2017 02:00:00 10,2 9,1 29 16 40 21 ZW 1021,4 10
21.05.2017 01:00:00 10,2 8,9 34 18 47 25 ZZW 1020,9 10
21.05.2017 00:00:00 10,8 9,6 35 19 40 21 Z 1020,3 10
20.05.2017 23:00:00 10,9 9,5 37 20 36 19 Z 1020,1 10
20.05.2017 22:00:00 11,0 9,3 31 17 36 19 Z 1019,7 10
20.05.2017 21:00:00 11,2 9,1 37 20 40 21 Z 1019,3 10
20.05.2017 20:00:00 11,1 9,0 35 19 36 19 Z 1019,1 10
20.05.2017 19:00:00 10,9 9,2 37 20 36 19 Z 1019,0 10
20.05.2017 18:00:00 10,7 9,7 34 18 32 18 Z 1018,8 10
20.05.2017 17:00:00 10,8 9,7 34 18 32 18 Z 1018,4 10
20.05.2017 16:00:00 10,8 8,8 31 17 32 18 Z 1018,1 10

tt = temperatuur
td = dauwpunt
ff = windsnelheid
fx = windstoten
dd = windrichting
ppp = luchtdruk
vv = zicht

Weerstations in de omgeving